Location: Moy Burn
(57.3833°N, 4.0667°W)
Time: 09:44:11
(UTC+00:00)

FALCON 9 DEB - Pass Details

Date: 08 August 2020
Orbit: 428 x 441 km, 53.0° (Epoch: 18 September)

Event Time Altitude Azimuth Distance (km) Brightness Sun altitude
Rises 22:44:45 0° 232° (SW) 2,426 6.8 -14.1°
Reaches altitude 10° 22:47:02 10° 221° (SW) 1,558 5.7 -14.2°
Enters shadow 22:49:06 24° 190° (S) 956 4.4 -14.3°
